• In Uzbekistan
  • List of Countries
  • For 7 days
  • Water Temperature
  • Satellite Maps
  • Weather Map
  • Weather Widgets
  • user-avatar
    Login

    Hourly Weather Zdbice

    Today, 18 February, Monday

    Time Temperature Precipitation Wind Pressure Humidity
    00:00 +5°C° 0 mm 1 mps 757 mmHg 97%
    01:00 +4°C° 0 mm 1 mps 757 mmHg 97%
    02:00 +4°C° 0 mm 1 mps 756 mmHg 97%
    03:00 +3°C° 0 mm 2 mps 756 mmHg 96%
    04:00 +3°C° 0 mm 2 mps 756 mmHg 96%
    05:00 +2°C° 0 mm 2 mps 756 mmHg 96%
    06:00 +2°C° 0 mm 2 mps 756 mmHg 95%
    07:00 +2°C° 0 mm 2 mps 755 mmHg 93%
    08:00 +3°C° 0 mm 2 mps 755 mmHg 88%
    09:00 +3°C° 0 mm 3 mps 755 mmHg 82%
    10:00 +4°C° 0 mm 3 mps 755 mmHg 76%
    11:00 +5°C° 0 mm 3 mps 755 mmHg 71%
    12:00 +8°C° 0 mm 3 mps 755 mmHg 66%
    13:00 +9°C° 0 mm 3 mps 755 mmHg 61%
    14:00 +9°C° 0 mm 3 mps 754 mmHg 62%
    15:00 +9°C° 0 mm 2 mps 754 mmHg 62%
    16:00 +9°C° 0 mm 2 mps 753 mmHg 63%
    17:00 +8°C° 0 mm 2 mps 753 mmHg 68%
    18:00 +6°C° 0 mm 2 mps 753 mmHg 72%
    19:00 +5°C° 0 mm 2 mps 752 mmHg 77%
    20:00 +5°C° 0 mm 2 mps 752 mmHg 78%
    21:00 +5°C° 0 mm 2 mps 752 mmHg 80%
    22:00 +4°C° 0 mm 2 mps 752 mmHg 81%
    23:00 +4°C° 0 mm 2 mps 751 mmHg 82%

    Tomorrow, 19 February, Tuesday

    Time Temperature Precipitation Wind Pressure Humidity
    00:00 +4°C° 0 mm 2 mps 751 mmHg 83%
    01:00 +3°C° 0 mm 2 mps 751 mmHg 84%
    02:00 +3°C° 0 mm 2 mps 750 mmHg 85%
    03:00 +2°C° 0 mm 3 mps 750 mmHg 85%
    04:00 +2°C° 0 mm 3 mps 749 mmHg 85%
    05:00 +2°C° 0 mm 3 mps 749 mmHg 86%
    06:00 +1°C° 0 mm 3 mps 749 mmHg 87%
    07:00 0°C° 0 mm 4 mps 748 mmHg 88%
    08:00 +3°C° 0 mm 4 mps 748 mmHg 84%
    09:00 +4°C° 0 mm 4 mps 749 mmHg 80%
    10:00 +5°C° 0 mm 5 mps 749 mmHg 76%
    11:00 +6°C° 0 mm 5 mps 749 mmHg 74%
    12:00 +7°C° 0 mm 5 mps 749 mmHg 72%
    13:00 +8°C° 0 mm 6 mps 749 mmHg 70%
    14:00 +8°C° 0.2 mm 5 mps 748 mmHg 74%
    15:00 +7°C° 0.2 mm 5 mps 748 mmHg 78%
    16:00 +6°C° 0.2 mm 5 mps 748 mmHg 81%
    17:00 +6°C° 0.1 mm 5 mps 749 mmHg 80%
    18:00 +6°C° 0.1 mm 5 mps 749 mmHg 79%
    19:00 +5°C° 0.1 mm 5 mps 749 mmHg 78%
    20:00 +5°C° 0.1 mm 5 mps 749 mmHg 80%
    21:00 +5°C° 0.1 mm 5 mps 749 mmHg 82%
    22:00 +5°C° 0.1 mm 5 mps 749 mmHg 83%
    23:00 +3°C° 0 mm 5 mps 749 mmHg 85%

    Day after tomorrow, 20 February, Wednesday

    Time Temperature Precipitation Wind Pressure Humidity
    00:00 +3°C° 0 mm 5 mps 750 mmHg 86%
    01:00 +2°C° 0 mm 5 mps 750 mmHg 87%
    02:00 +2°C° 0 mm 5 mps 750 mmHg 85%
    03:00 +2°C° 0 mm 5 mps 750 mmHg 83%
    04:00 +2°C° 0 mm 6 mps 750 mmHg 81%
    05:00 +2°C° 0 mm 6 mps 750 mmHg 82%
    06:00 +2°C° 0 mm 5 mps 751 mmHg 82%
    07:00 +2°C° 0 mm 5 mps 751 mmHg 83%
    08:00 +2°C° 0.1 mm 5 mps 751 mmHg 83%
    09:00 +2°C° 0.1 mm 5 mps 752 mmHg 82%
    10:00 +3°C° 0.1 mm 5 mps 752 mmHg 82%
    11:00 +3°C° 0 mm 5 mps 753 mmHg 79%
    12:00 +5°C° 0 mm 5 mps 753 mmHg 75%
    13:00 +6°C° 0 mm 5 mps 753 mmHg 72%
    14:00 +6°C° 0 mm 4 mps 753 mmHg 73%
    15:00 +6°C° 0 mm 4 mps 753 mmHg 74%
    16:00 +7°C° 0 mm 3 mps 753 mmHg 75%
    17:00 +5°C° 0 mm 3 mps 754 mmHg 78%
    18:00 +5°C° 0 mm 3 mps 754 mmHg 80%
    19:00 +5°C° 0 mm 3 mps 754 mmHg 82%
    20:00 +5°C° 0.1 mm 3 mps 754 mmHg 84%
    21:00 +5°C° 0.1 mm 3 mps 754 mmHg 85%
    22:00 +5°C° 0.1 mm 3 mps 754 mmHg 87%
    23:00 +5°C° 0.2 mm 4 mps 754 mmHg 86%

    21 February, Thursday

    Time Temperature Precipitation Wind Pressure Humidity
    00:00 +5°C° 0.2 mm 4 mps 754 mmHg 85%
    01:00 +5°C° 0.2 mm 4 mps 754 mmHg 85%
    02:00 +5°C° 0.4 mm 4 mps 753 mmHg 86%
    03:00 +3°C° 0.4 mm 5 mps 753 mmHg 88%
    04:00 +3°C° 0.4 mm 5 mps 753 mmHg 89%
    05:00 +5°C° 0.3 mm 5 mps 753 mmHg 90%
    06:00 +5°C° 0.3 mm 5 mps 753 mmHg 90%
    07:00 +5°C° 0.3 mm 5 mps 753 mmHg 91%
    08:00 +5°C° 0.1 mm 5 mps 753 mmHg 91%
    09:00 +6°C° 0.1 mm 4 mps 753 mmHg 91%
    10:00 +6°C° 0.1 mm 4 mps 754 mmHg 91%
    11:00 +6°C° 0.1 mm 4 mps 754 mmHg 90%
    12:00 +7°C° 0.1 mm 4 mps 754 mmHg 89%
    13:00 +7°C° 0.1 mm 4 mps 754 mmHg 88%
    14:00 +7°C° 0.1 mm 4 mps 755 mmHg 87%
    15:00 +7°C° 0.1 mm 4 mps 755 mmHg 87%
    16:00 +7°C° 0.1 mm 4 mps 755 mmHg 86%
    17:00 +6°C° 0 mm 4 mps 756 mmHg 87%
    18:00 +6°C° 0 mm 4 mps 756 mmHg 87%
    19:00 +6°C° 0 mm 4 mps 757 mmHg 88%
    20:00 +5°C° 0 mm 4 mps 757 mmHg 89%
    21:00 +5°C° 0 mm 4 mps 758 mmHg 91%
    22:00 +4°C° 0 mm 3 mps 758 mmHg 92%
    23:00 +4°C° 0 mm 3 mps 759 mmHg 92%

    22 February, Friday

    Time Temperature Precipitation Wind Pressure Humidity
    00:00 +4°C° 0 mm 3 mps 760 mmHg 92%
    01:00 +4°C° 0 mm 3 mps 760 mmHg 92%
    02:00 +4°C° 0 mm 3 mps 761 mmHg 92%
    03:00 +4°C° 0 mm 3 mps 761 mmHg 92%
    04:00 +5°C° 0 mm 2 mps 762 mmHg 91%
    05:00 +4°C° 0 mm 2 mps 763 mmHg 91%
    06:00 +3°C° 0 mm 2 mps 764 mmHg 91%
    07:00 +2°C° 0 mm 2 mps 764 mmHg 91%
    08:00 +3°C° 0 mm 2 mps 765 mmHg 84%
    09:00 +3°C° 0 mm 2 mps 766 mmHg 77%
    10:00 +3°C° 0 mm 2 mps 767 mmHg 70%
    11:00 +4°C° 0 mm 2 mps 767 mmHg 64%
    12:00 +5°C° 0 mm 2 mps 768 mmHg 59%
    13:00 +6°C° 0 mm 2 mps 768 mmHg 54%
    14:00 +6°C° 0 mm 2 mps 768 mmHg 53%
    15:00 +7°C° 0 mm 1 mps 768 mmHg 53%
    16:00 +7°C° 0 mm 1 mps 769 mmHg 53%
    17:00 +6°C° 0 mm 1 mps 769 mmHg 57%
    18:00 +5°C° 0 mm 1 mps 769 mmHg 61%
    19:00 +4°C° 0 mm 1 mps 769 mmHg 65%
    20:00 +4°C° 0 mm 1 mps 770 mmHg 67%
    21:00 +2°C° 0 mm 2 mps 770 mmHg 68%
    22:00 +2°C° 0 mm 2 mps 770 mmHg 70%
    23:00 +2°C° 0 mm 2 mps 770 mmHg 72%

    23 February, Saturday

    Time Temperature Precipitation Wind Pressure Humidity
    00:00 +1°C° 0 mm 2 mps 770 mmHg 74%
    01:00 +1°C° 0 mm 2 mps 769 mmHg 76%
    02:00 +1°C° 0 mm 2 mps 769 mmHg 79%
    03:00 +1°C° 0 mm 2 mps 769 mmHg 81%
    04:00 +1°C° 0 mm 2 mps 769 mmHg 84%
    05:00 +2°C° 0 mm 2 mps 768 mmHg 87%
    06:00 +2°C° 0 mm 2 mps 768 mmHg 89%
    07:00 +2°C° 0 mm 3 mps 768 mmHg 92%
    08:00 +3°C° 0 mm 3 mps 767 mmHg 92%
    09:00 +4°C° 0 mm 3 mps 767 mmHg 92%
    10:00 +6°C° 0 mm 4 mps 767 mmHg 92%
    11:00 +7°C° 0 mm 4 mps 767 mmHg 87%
    12:00 +8°C° 0 mm 4 mps 767 mmHg 82%
    13:00 +10°C° 0 mm 4 mps 766 mmHg 77%
    14:00 +10°C° 0 mm 4 mps 766 mmHg 75%
    15:00 +10°C° 0 mm 4 mps 766 mmHg 72%
    16:00 +11°C° 0 mm 4 mps 765 mmHg 70%
    17:00 +10°C° 0 mm 4 mps 765 mmHg 73%
    18:00 +8°C° 0 mm 4 mps 765 mmHg 77%
    19:00 +7°C° 0 mm 4 mps 765 mmHg 81%
    20:00 +6°C° 0 mm 4 mps 765 mmHg 81%
    21:00 +6°C° 0 mm 4 mps 765 mmHg 81%
    22:00 +5°C° 0 mm 4 mps 765 mmHg 82%
    23:00 +5°C° 0 mm 4 mps 765 mmHg 84%
    Show more